Location: The Saddle
(36.8333°N, 80.3417°W)
Time: 12:37:52
(UTC-04:00)

SR - Pass Details

Date: 01 June 2024
Orbit: 580 x 858 km, 66.7° (Epoch: 14 June)

Event Time Altitude Azimuth Distance (km) Brightness Sun altitude
Rises 01:39:57 0° 335° (NNW) 2,823 ? -30.8°
Reaches altitude 10° 01:42:13 10° 338° (NNW) 1,905 ? -30.8°
Enters shadow 01:44:21 29° 346° (NNW) 1,089 ? -30.7°
